| time (UTC) | temp F | wind direction | speed MPH | gust MPH | rain 1hr in | rain 24hr in | rain mn in | humidity % | barometer mb |
| 20260508111715 | 44 | 311 | 0.0 | 0.0 | 0.00 | 0.00 | 0.00 | 48 | 1014.4 |
| 20260508111224 | 43 | 311 | 0.0 | 0.0 | 0.00 | 0.00 | 0.00 | 48 | 1014.3 |
| 20260508110721 | 43 | 311 | 0.0 | 0.0 | 0.00 | 0.00 | 0.00 | 47 | 1014.3 |
| 20260508110202 | 43 | 311 | 0.0 | 0.0 | 0.00 | 0.00 | 0.00 | 47 | 1014.2 |
| 20260508105644 | 43 | 311 | 0.0 | 0.0 | 0.00 | 0.00 | 0.00 | 48 | 1014.1 |
| 20260508105147 | 43 | 311 | 0.0 | 0.0 | 0.00 | 0.00 | 0.00 | 48 | 1014.1 |
| 20260508104647 | 43 | 311 | 0.0 | 0.0 | 0.00 | 0.00 | 0.00 | 48 | 1014.0 |
| 20260508104137 | 43 | 311 | 0.0 | 0.0 | 0.00 | 0.00 | 0.00 | 49 | 1013.9 |
| 20260508103641 | 43 | 311 | 0.0 | 0.0 | 0.00 | 0.00 | 0.00 | 49 | 1013.8 |
| 20260508103131 | 43 | 311 | 0.0 | 0.0 | 0.00 | 0.00 | 0.00 | 49 | 1013.8 |
| 20260508102640 | 43 | 311 | 0.0 | 0.0 | 0.00 | 0.00 | 0.00 | 49 | 1013.9 |
| 20260508101138 | 43 | 313 | 0.0 | 0.0 | 0.00 | 0.00 | 0.00 | 50 | 1013.6 |
| 20260508100642 | 43 | 313 | 0.0 | 0.0 | 0.00 | 0.00 | 0.00 | 51 | 1013.5 |
| 20260508100127 | 43 | 313 | 0.0 | 0.0 | 0.00 | 0.00 | 0.00 | 52 | 1013.5 |
| 20260508095627 | 43 | 313 | 0.0 | 0.0 | 0.00 | 0.00 | 0.00 | 53 | 1013.5 |
| 20260508095125 | 43 | 313 | 0.0 | 0.0 | 0.00 | 0.00 | 0.00 | 53 | 1013.6 |
| 20260508094619 | 43 | 313 | 0.0 | 0.0 | 0.00 | 0.00 | 0.00 | 54 | 1013.7 |
| 20260508094114 | 43 | 313 | 0.0 | 0.0 | 0.00 | 0.00 | 0.00 | 55 | 1013.7 |
| 20260508093607 | 43 | 313 | 0.0 | 0.0 | 0.00 | 0.00 | 0.00 | 55 | 1013.6 |
| 20260508093057 | 43 | 313 | 0.0 | 0.0 | 0.00 | 0.00 | 0.00 | 56 | 1013.6 |
| 20260508092055 | 43 | 313 | 0.0 | 0.0 | 0.00 | 0.00 | 0.00 | 56 | 1013.5 |
| 20260508091549 | 43 | 313 | 0.0 | 0.0 | 0.00 | 0.00 | 0.00 | 56 | 1013.5 |
| 20260508091051 | 44 | 313 | 0.0 | 0.0 | 0.00 | 0.00 | 0.00 | 57 | 1013.4 |
| 20260508090533 | 44 | 313 | 0.0 | 0.0 | 0.00 | 0.00 | 0.00 | 58 | 1013.4 |
| 20260508090022 | 44 | 313 | 0.0 | 0.0 | 0.00 | 0.00 | 0.00 | 59 | 1013.3 |
| 20260508085010 | 44 | 313 | 0.0 | 0.0 | 0.00 | 0.00 | 0.00 | 61 | 1013.1 |
| 20260508084520 | 44 | 313 | 0.0 | 0.0 | 0.00 | 0.00 | 0.00 | 61 | 1013.2 |
| 20260508083522 | 45 | 313 | 0.0 | 0.0 | 0.00 | 0.00 | 0.00 | 61 | 1013.2 |
| 20260508083030 | 45 | 313 | 0.0 | 0.0 | 0.00 | 0.00 | 0.00 | 61 | 1013.2 |
| 20260508082520 | 46 | 313 | 0.0 | 0.0 | 0.00 | 0.00 | 0.00 | 61 | 1013.2 |
| 20260508082003 | 46 | 313 | 0.0 | 0.0 | 0.00 | 0.00 | 0.00 | 61 | 1013.1 |
| 20260508081445 | 46 | 313 | 0.0 | 0.0 | 0.00 | 0.00 | 0.00 | 61 | 1013.0 |
| 20260508080937 | 47 | 313 | 0.0 | 0.0 | 0.00 | 0.00 | 0.00 | 60 | 1013.0 |
| 20260508080441 | 47 | 313 | 0.0 | 0.0 | 0.00 | 0.00 | 0.00 | 60 | 1013.1 |
| 20260508075941 | 47 | 313 | 0.0 | 0.0 | 0.00 | 0.00 | 0.00 | 60 | 1013.0 |
| 20260508075428 | 48 | 313 | 0.0 | 0.0 | 0.00 | 0.00 | 0.00 | 60 | 1013.0 |
| 20260508074406 | 48 | 313 | 0.0 | 0.0 | 0.00 | 0.00 | 0.00 | 60 | 1012.9 |
| 20260508073857 | 48 | 313 | 0.0 | 0.0 | 0.00 | 0.00 | 0.00 | 60 | 1012.8 |
| 20260508073358 | 49 | 313 | 0.0 | 0.0 | 0.00 | 0.00 | 0.00 | 60 | 1012.7 |
| 20260508072902 | 49 | 314 | 0.0 | 0.0 | 0.00 | 0.00 | 0.00 | 60 | 1012.5 |
| 20260508072401 | 49 | 314 | 0.0 | 0.0 | 0.00 | 0.00 | 0.00 | 60 | 1012.5 |
| 20260508071852 | 49 | 314 | 0.0 | 0.0 | 0.00 | 0.00 | 0.00 | 60 | 1012.4 |
| 20260508071403 | 49 | 314 | 0.0 | 0.0 | 0.00 | 0.00 | 0.00 | 59 | 1012.4 |
| 20260508070402 | 50 | 288 | 0.0 | 0.0 | 0.00 | 0.00 | 0.00 | 59 | 1012.2 |
| 20260508065851 | 50 | 250 | 0.0 | 0.0 | 0.00 | 0.00 | 0.00 | 59 | 1012.2 |
| 20260508065338 | 50 | 281 | 0.0 | 3.0 | 0.00 | 0.00 | 0.00 | 59 | 1012.2 |
| 20260508064818 | 50 | 67 | 0.0 | 2.0 | 0.00 | 0.00 | 0.00 | 59 | 1012.1 |
| 20260508063756 | 50 | 298 | 0.0 | 2.0 | 0.00 | 0.00 | 0.00 | 58 | 1012.1 |
| 20260508063239 | 51 | 297 | 0.0 | 1.0 | 0.00 | 0.00 | 0.00 | 58 | 1012.1 |
| 20260508062746 | 51 | 278 | 0.0 | 1.0 | 0.00 | 0.00 | 0.00 | 58 | 1012.1 |
| 20260508062233 | 51 | 292 | 0.0 | 1.0 | 0.00 | 0.00 | 0.00 | 58 | 1012.0 |
| 20260508061224 | 51 | 293 | 0.0 | 2.0 | 0.00 | 0.01 | 0.00 | 58 | 1012.0 |
| 20260508060728 | 51 | 296 | 0.0 | 0.0 | 0.00 | 0.01 | 0.00 | 58 | 1011.9 |
| 20260508060222 | 51 | 23 | 0.0 | 3.0 | 0.00 | 0.01 | 0.00 | 59 | 1011.8 |
| 20260508055731 | 51 | 258 | 0.0 | 1.0 | 0.00 | 0.01 | 0.00 | 59 | 1011.7 |
| 20260508055217 | 51 | 265 | 0.0 | 0.0 | 0.00 | 0.01 | 0.00 | 59 | 1011.6 |
| 20260508054718 | 51 | 271 | 0.0 | 0.0 | 0.00 | 0.01 | 0.00 | 59 | 1011.6 |
| 20260508054213 | 50 | 288 | 0.0 | 2.0 | 0.00 | 0.01 | 0.00 | 59 | 1011.5 |
| 20260508053708 | 50 | 254 | 0.0 | 0.0 | 0.00 | 0.01 | 0.00 | 58 | 1011.5 |
| 20260508053213 | 50 | 284 | 0.0 | 0.0 | 0.00 | 0.01 | 0.00 | 55 | 1011.5 |
| 20260508052202 | 49 | 337 | 0.0 | 1.0 | 0.00 | 0.01 | 0.00 | 39 | 1011.5 |
| 20260508051155 | 49 | 290 | 0.0 | 0.0 | 0.00 | 0.01 | 0.00 | 17 | 1011.5 |
| 20260508050649 | 49 | 296 | 0.0 | 0.0 | 0.00 | 0.01 | 0.00 | 14 | 1011.4 |
| 20260508050145 | 49 | 298 | 0.0 | 0.0 | 0.00 | 0.01 | 0.00 | 11 | 1011.4 |
| 20260508045649 | 50 | 196 | 0.0 | 0.0 | 0.00 | 0.01 | 0.00 | 7 | 1011.3 |
| 20260508045133 | 50 | 195 | 0.0 | 0.0 | 0.00 | 0.01 | 0.00 | 8 | 1011.2 |
| 20260508044142 | 50 | 170 | 0.0 | 0.0 | 0.00 | 0.01 | 0.00 | 11 | 1011.0 |
| 20260508043637 | 50 | 170 | 0.0 | 0.0 | 0.00 | 0.01 | 0.00 | 11 | 1010.9 |
| 20260508043122 | 51 | 170 | 0.0 | 0.0 | 0.00 | 0.01 | 0.00 | 13 | 1010.9 |
| 20260508041652 | 51 | 170 | 0.0 | 0.0 | 0.00 | 0.01 | 0.00 | 13 | 1010.8 |
| 20260508041136 | 51 | 170 | 0.0 | 0.0 | 0.00 | 0.02 | 0.00 | 15 | 1010.7 |
| 20260508040622 | 51 | 169 | 0.0 | 0.0 | 0.00 | 0.02 | 0.00 | 18 | 1010.7 |
| 20260508040107 | 52 | 169 | 0.0 | 0.0 | 0.00 | 0.02 | 0.00 | 18 | 1010.6 |
| 20260508035602 | 52 | 169 | 0.0 | 0.0 | 0.00 | 0.02 | 0.02 | 19 | 1010.6 |
| 20260508034106 | 52 | 168 | 0.0 | 0.0 | 0.00 | 0.02 | 0.02 | 25 | 1010.5 |
| 20260508033614 | 53 | 138 | 0.0 | 0.0 | 0.00 | 0.02 | 0.02 | 26 | 1010.5 |
| 20260508033115 | 53 | 138 | 0.0 | 0.0 | 0.00 | 0.02 | 0.02 | 28 | 1010.5 |
| 20260508032051 | 53 | 138 | 0.0 | 0.0 | 0.00 | 0.02 | 0.02 | 31 | 1010.4 |
| 20260508031551 | 53 | 138 | 0.0 | 0.0 | 0.00 | 0.02 | 0.02 | 33 | 1010.4 |
| 20260508031051 | 54 | 138 | 0.0 | 0.0 | 0.00 | 0.02 | 0.02 | 34 | 1010.4 |
| 20260508030536 | 54 | 153 | 0.0 | 0.0 | 0.00 | 0.02 | 0.02 | 35 | 1010.3 |
| 20260508030038 | 54 | 153 | 0.0 | 0.0 | 0.00 | 0.02 | 0.02 | 37 | 1010.3 |
| 20260508025525 | 54 | 150 | 0.0 | 0.0 | 0.00 | 0.02 | 0.02 | 39 | 1010.3 |
| 20260508024524 | 55 | 142 | 0.0 | 0.0 | 0.00 | 0.02 | 0.02 | 42 | 1010.2 |
| 20260508024010 | 55 | 153 | 0.0 | 0.0 | 0.00 | 0.02 | 0.02 | 43 | 1010.2 |
| 20260508023459 | 55 | 153 | 0.0 | 0.0 | 0.00 | 0.02 | 0.02 | 44 | 1010.2 |
| 20260508021948 | 55 | 150 | 0.0 | 0.0 | 0.00 | 0.02 | 0.02 | 47 | 1010.2 |
| 20260508021452 | 55 | 148 | 0.0 | 0.0 | 0.00 | 0.02 | 0.02 | 48 | 1010.2 |
| 20260508020933 | 55 | 148 | 0.0 | 0.0 | 0.00 | 0.02 | 0.02 | 49 | 1010.1 |
| 20260508020434 | 55 | 140 | 0.0 | 0.0 | 0.00 | 0.02 | 0.02 | 50 | 1010.1 |
| 20260508015925 | 56 | 134 | 0.0 | 6.0 | 0.00 | 0.02 | 0.02 | 51 | 1010.1 |
| 20260508015424 | 56 | 166 | 0.0 | 6.0 | 0.00 | 0.02 | 0.02 | 52 | 1010.0 |
| 20260508014933 | 56 | 132 | 0.0 | 4.0 | 0.00 | 0.02 | 0.02 | 53 | 1009.9 |
| 20260508014426 | 56 | 158 | 0.0 | 9.0 | 0.00 | 0.02 | 0.02 | 54 | 1009.9 |
| 20260508013908 | 56 | 150 | 0.0 | 9.0 | 0.00 | 0.02 | 0.02 | 55 | 1009.9 |
| 20260508012908 | 56 | 190 | 0.0 | 7.0 | 0.00 | 0.03 | 0.02 | 56 | 1009.7 |
| 20260508012353 | 56 | 157 | 0.0 | 6.0 | 0.00 | 0.03 | 0.02 | 57 | 1009.7 |
| 20260508011900 | 57 | 148 | 0.0 | 0.0 | 0.00 | 0.03 | 0.02 | 57 | 1009.6 |
| 20260508011359 | 57 | 163 | 1.0 | 7.0 | 0.00 | 0.03 | 0.02 | 57 | 1009.5 |
| 20260508010903 | 57 | 150 | 1.0 | 7.0 | 0.00 | 0.03 | 0.02 | 58 | 1009.4 |
| 20260508010403 | 57 | 146 | 0.0 | 7.0 | 0.00 | 0.03 | 0.02 | 58 | 1009.4 |
| 20260508005845 | 57 | 157 | 0.0 | 5.0 | 0.00 | 0.03 | 0.02 | 58 | 1009.4 |
| 20260508005331 | 57 | 152 | 0.0 | 0.0 | 0.00 | 0.03 | 0.02 | 58 | 1009.3 |
| 20260508004840 | 57 | 146 | 0.0 | 6.0 | 0.00 | 0.03 | 0.02 | 58 | 1009.1 |
| 20260508004348 | 58 | 150 | 0.0 | 5.0 | 0.00 | 0.03 | 0.02 | 58 | 1009.0 |
| 20260508003831 | 58 | 140 | 0.0 | 6.0 | 0.00 | 0.03 | 0.02 | 58 | 1008.9 |
| 20260508003325 | 58 | 153 | 0.0 | 6.0 | 0.00 | 0.03 | 0.02 | 58 | 1008.8 |
| 20260508002334 | 59 | 150 | 0.0 | 8.0 | 0.00 | 0.03 | 0.02 | 58 | 1008.7 |
| 20260508000258 | 61 | 156 | 0.0 | 0.0 | 0.00 | 0.05 | 0.02 | 51 | 1008.4 |
| 20260507235742 | 61 | 156 | 0.0 | 0.0 | 0.00 | 0.05 | 0.02 | 50 | 1008.2 |
| 20260507235247 | 61 | 156 | 0.0 | 0.0 | 0.00 | 0.05 | 0.02 | 49 | 1008.2 |
| 20260507234756 | 62 | 156 | 0.0 | 0.0 | 0.00 | 0.05 | 0.02 | 49 | 1008.2 |
| 20260507234252 | 62 | 156 | 0.0 | 0.0 | 0.00 | 0.05 | 0.02 | 48 | 1008.1 |
| 20260507233753 | 63 | 156 | 0.0 | 0.0 | 0.00 | 0.05 | 0.02 | 47 | 1008.0 |
| 20260507233301 | 63 | 156 | 0.0 | 0.0 | 0.00 | 0.05 | 0.02 | 46 | 1008.0 |
| 20260507232748 | 64 | 156 | 0.0 | 0.0 | 0.00 | 0.05 | 0.02 | 46 | 1008.0 |
| 20260507232252 | 64 | 156 | 0.0 | 0.0 | 0.00 | 0.05 | 0.02 | 44 | 1007.9 |
| 20260507231751 | 65 | 156 | 0.0 | 0.0 | 0.00 | 0.05 | 0.02 | 43 | 1007.8 |
| 20260507231300 | 66 | 156 | 0.0 | 0.0 | 0.00 | 0.05 | 0.02 | 42 | 1007.8 |
| 20260507230747 | 66 | 156 | 0.0 | 0.0 | 0.00 | 0.05 | 0.02 | 40 | 1007.8 |
| 20260507230237 | 66 | 156 | 0.0 | 0.0 | 0.00 | 0.05 | 0.02 | 39 | 1007.7 |
| 20260507225730 | 67 | 156 | 0.0 | 0.0 | 0.00 | 0.05 | 0.02 | 37 | 1007.7 |
| 20260507225225 | 67 | 156 | 0.0 | 0.0 | 0.00 | 0.05 | 0.02 | 37 | 1007.6 |
| 20260507224722 | 67 | 156 | 0.0 | 0.0 | 0.00 | 0.05 | 0.02 | 36 | 1007.6 |
| 20260507224208 | 67 | 31 | 0.0 | 0.0 | 0.00 | 0.05 | 0.02 | 39 | 1007.7 |
| 20260507222632 | 67 | 355 | 0.0 | 0.0 | 0.00 | 0.05 | 0.02 | 35 | 1007.6 |
| 20260507222136 | 68 | 355 | 0.0 | 0.0 | 0.00 | 0.05 | 0.02 | 35 | 1007.6 |
| 20260507221644 | 68 | 238 | 0.0 | 0.0 | 0.00 | 0.05 | 0.02 | 36 | 1007.5 |
| 20260507221138 | 68 | 238 | 0.0 | 0.0 | 0.00 | 0.05 | 0.02 | 35 | 1007.6 |
| 20260507220626 | 68 | 223 | 0.0 | 0.0 | 0.00 | 0.05 | 0.02 | 36 | 1007.6 |
| 20260507220118 | 68 | 222 | 0.0 | 0.0 | 0.00 | 0.05 | 0.02 | 34 | 1007.6 |
| 20260507215618 | 68 | 250 | 0.0 | 0.0 | 0.00 | 0.05 | 0.02 | 35 | 1007.6 |
| 20260507215125 | 68 | 273 | 0.0 | 0.0 | 0.00 | 0.05 | 0.02 | 36 | 1007.7 |
| 20260507214613 | 68 | 249 | 0.0 | 0.0 | 0.00 | 0.05 | 0.02 | 34 | 1007.6 |
| 20260507214114 | 68 | 244 | 0.0 | 0.0 | 0.00 | 0.05 | 0.02 | 38 | 1007.6 |
| 20260507213606 | 67 | 242 | 0.0 | 1.0 | 0.00 | 0.05 | 0.02 | 36 | 1007.8 |
| 20260507213050 | 67 | 290 | 0.0 | 0.0 | 0.00 | 0.05 | 0.02 | 37 | 1007.7 |
| 20260507212548 | 67 | 264 | 0.0 | 0.0 | 0.00 | 0.05 | 0.02 | 36 | 1007.8 |
| 20260507211028 | 66 | 240 | 0.0 | 0.0 | 0.00 | 0.05 | 0.02 | 38 | 1007.9 |
| 20260507210535 | 67 | 70 | 0.0 | 0.0 | 0.00 | 0.05 | 0.02 | 37 | 1007.9 |
| 20260507205530 | 67 | 279 | 0.0 | 1.0 | 0.00 | 0.05 | 0.02 | 38 | 1008.0 |
| 20260507205015 | 67 | 331 | 0.0 | 5.0 | 0.00 | 0.05 | 0.02 | 37 | 1008.0 |
| 20260507204501 | 67 | 167 | 0.0 | 0.0 | 0.00 | 0.05 | 0.02 | 36 | 1008.0 |
| 20260507203954 | 67 | 269 | 0.0 | 0.0 | 0.00 | 0.05 | 0.02 | 38 | 1008.0 |
| 20260507203435 | 67 | 350 | 0.0 | 0.0 | 0.00 | 0.05 | 0.02 | 37 | 1008.0 |
| 20260507202922 | 67 | 247 | 0.0 | 2.0 | 0.00 | 0.05 | 0.02 | 37 | 1008.0 |
| 20260507202426 | 67 | 258 | 0.0 | 2.0 | 0.00 | 0.05 | 0.02 | 38 | 1008.0 |
| 20260507201921 | 67 | 305 | 0.0 | 0.0 | 0.00 | 0.05 | 0.02 | 37 | 1008.0 |
| 20260507200927 | 66 | 189 | 0.0 | 1.0 | 0.00 | 0.05 | 0.02 | 40 | 1007.9 |
| 20260507200408 | 66 | 250 | 0.0 | 0.0 | 0.00 | 0.05 | 0.02 | 39 | 1007.9 |
| 20260507195903 | 66 | 355 | 0.0 | 0.0 | 0.00 | 0.05 | 0.02 | 40 | 1008.1 |
| 20260507195400 | 66 | 355 | 0.0 | 0.0 | 0.00 | 0.05 | 0.02 | 44 | 1008.2 |
| 20260507194849 | 66 | 290 | 0.0 | 3.0 | 0.00 | 0.05 | 0.02 | 39 | 1008.3 |
| 20260507194355 | 66 | 302 | 0.0 | 1.0 | 0.00 | 0.05 | 0.02 | 40 | 1008.3 |
| 20260507193900 | 66 | 235 | 0.0 | 6.0 | 0.00 | 0.05 | 0.02 | 37 | 1008.4 |
| 20260507192349 | 65 | 250 | 0.0 | 3.0 | 0.00 | 0.05 | 0.02 | 39 | 1008.5 |
| 20260507191833 | 65 | 293 | 0.0 | 2.0 | 0.00 | 0.05 | 0.02 | 40 | 1008.7 |
| 20260507191317 | 66 | 213 | 0.0 | 1.0 | 0.00 | 0.05 | 0.02 | 40 | 1008.8 |
| 20260507190801 | 65 | 228 | 0.0 | 5.0 | 0.00 | 0.05 | 0.02 | 38 | 1008.7 |
| 20260507190247 | 66 | 123 | 0.0 | 3.0 | 0.00 | 0.05 | 0.02 | 41 | 1008.7 |
| 20260507185751 | 65 | 265 | 0.0 | 1.0 | 0.00 | 0.05 | 0.02 | 41 | 1008.9 |
| 20260507185233 | 65 | 304 | 0.0 | 0.0 | 0.00 | 0.05 | 0.02 | 40 | 1009.0 |
| 20260507184733 | 65 | 250 | 0.0 | 3.0 | 0.00 | 0.05 | 0.02 | 41 | 1009.0 |
| 20260507184235 | 65 | 295 | 0.0 | 0.0 | 0.00 | 0.05 | 0.02 | 39 | 1009.0 |
| 20260507183228 | 64 | 58 | 0.0 | 1.0 | 0.00 | 0.05 | 0.02 | 43 | 1009.1 |
| 20260507182709 | 63 | 298 | 0.0 | 3.0 | 0.00 | 0.05 | 0.02 | 38 | 1009.1 |
| 20260507182157 | 64 | 130 | 0.0 | 0.0 | 0.00 | 0.05 | 0.02 | 38 | 1009.1 |
| 20260507181706 | 64 | 233 | 0.0 | 0.0 | 0.00 | 0.05 | 0.02 | 44 | 1009.1 |
| 20260507181214 | 64 | 213 | 0.0 | 3.0 | 0.00 | 0.05 | 0.02 | 42 | 1009.3 |
| 20260507180724 | 64 | 54 | 0.0 | 0.0 | 0.00 | 0.05 | 0.02 | 44 | 1009.5 |
| 20260507180206 | 63 | 288 | 0.0 | 0.0 | 0.00 | 0.05 | 0.02 | 38 | 1009.5 |
| 20260507175701 | 63 | 298 | 0.0 | 7.0 | 0.00 | 0.05 | 0.02 | 42 | 1009.7 |
| 20260507175209 | 63 | 57 | 0.0 | 4.0 | 0.00 | 0.05 | 0.02 | 40 | 1009.7 |
| 20260507174656 | 63 | 67 | 0.0 | 4.0 | 0.00 | 0.05 | 0.02 | 43 | 1009.8 |
| 20260507174136 | 63 | 312 | 0.0 | 3.0 | 0.00 | 0.05 | 0.02 | 42 | 1009.8 |
| 20260507173636 | 63 | 268 | 0.0 | 1.0 | 0.00 | 0.05 | 0.02 | 42 | 1009.9 |
| 20260507172623 | 62 | 248 | 0.0 | 3.0 | 0.00 | 0.05 | 0.02 | 44 | 1009.9 |
| 20260507172105 | 63 | 313 | 0.0 | 3.0 | 0.00 | 0.05 | 0.02 | 41 | 1009.9 |
| 20260507171600 | 63 | 288 | 0.0 | 2.0 | 0.00 | 0.05 | 0.02 | 41 | 1009.9 |
| 20260507170033 | 63 | 65 | 0.0 | 2.0 | 0.00 | 0.05 | 0.02 | 43 | 1010.1 |
| 20260507165516 | 63 | 355 | 0.0 | 0.0 | 0.00 | 0.05 | 0.02 | 43 | 1010.2 |
| 20260507165014 | 63 | 294 | 0.0 | 1.0 | 0.00 | 0.05 | 0.02 | 42 | 1010.2 |
| 20260507164511 | 63 | 0 | 0.0 | 0.0 | 0.00 | 0.05 | 0.02 | 45 | 1010.3 |
| 20260507164012 | 63 | 261 | 0.0 | 0.0 | 0.00 | 0.05 | 0.02 | 46 | 1010.5 |
| 20260507163459 | 62 | 348 | 0.0 | 0.0 | 0.00 | 0.05 | 0.02 | 45 | 1010.5 |
| 20260507162945 | 62 | 137 | 0.0 | 6.0 | 0.00 | 0.05 | 0.02 | 42 | 1010.5 |
| 20260507162446 | 62 | 214 | 0.0 | 4.0 | 0.00 | 0.05 | 0.02 | 45 | 1010.6 |
| 20260507161432 | 61 | 52 | 0.0 | 3.0 | 0.00 | 0.05 | 0.02 | 41 | 1010.8 |
| 20260507160921 | 61 | 5 | 0.0 | 6.0 | 0.00 | 0.05 | 0.02 | 47 | 1010.7 |
| 20260507160423 | 61 | 318 | 0.0 | 3.0 | 0.00 | 0.05 | 0.02 | 43 | 1010.7 |
| 20260507155910 | 61 | 86 | 0.0 | 2.0 | 0.00 | 0.05 | 0.02 | 47 | 1010.9 |
| 20260507154900 | 61 | 261 | 0.0 | 2.0 | 0.00 | 0.05 | 0.02 | 48 | 1010.9 |
| 20260507152836 | 60 | 72 | 1.0 | 6.0 | 0.00 | 0.05 | 0.02 | 50 | 1011.2 |
| 20260507152343 | 59 | 292 | 1.0 | 9.0 | 0.00 | 0.05 | 0.02 | 46 | 1011.1 |
| 20260507151827 | 59 | 297 | 1.0 | 9.0 | 0.00 | 0.05 | 0.02 | 48 | 1011.2 |
| 20260507151317 | 59 | 284 | 2.0 | 9.0 | 0.00 | 0.06 | 0.02 | 46 | 1011.3 |
| 20260507150329 | 59 | 298 | 2.0 | 8.0 | 0.00 | 0.06 | 0.02 | 48 | 1011.6 |
| 20260507145326 | 57 | 292 | 1.0 | 8.0 | 0.00 | 0.07 | 0.02 | 54 | 1011.7 |
| 20260507144829 | 56 | 304 | 1.0 | 8.0 | 0.00 | 0.08 | 0.02 | 52 | 1011.8 |
| 20260507144328 | 56 | 339 | 1.0 | 6.0 | 0.00 | 0.09 | 0.02 | 54 | 1011.8 |
| 20260507143809 | 55 | 302 | 0.0 | 3.0 | 0.00 | 0.09 | 0.02 | 57 | 1011.6 |
| 20260507143251 | 54 | 12 | 0.0 | 3.0 | 0.00 | 0.11 | 0.02 | 58 | 1011.8 |
| 20260507142749 | 53 | 267 | 0.0 | 5.0 | 0.00 | 0.11 | 0.02 | 57 | 1012.0 |
| 20260507142256 | 53 | 267 | 0.0 | 1.0 | 0.00 | 0.11 | 0.02 | 58 | 1011.8 |
| 20260507141803 | 53 | 267 | 0.0 | 1.0 | 0.00 | 0.11 | 0.02 | 59 | 1012.0 |
| 20260507141248 | 53 | 266 | 0.0 | 0.0 | 0.00 | 0.11 | 0.02 | 59 | 1012.0 |
| 20260507140740 | 53 | 266 | 0.0 | 1.0 | 0.00 | 0.11 | 0.02 | 59 | 1012.0 |
| 20260507140241 | 53 | 266 | 0.0 | 0.0 | 0.00 | 0.11 | 0.02 | 58 | 1012.2 |
| 20260507135738 | 53 | 266 | 0.0 | 6.0 | 0.00 | 0.11 | 0.02 | 58 | 1012.3 |
| 20260507135222 | 53 | 266 | 1.0 | 6.0 | 0.00 | 0.12 | 0.02 | 58 | 1012.4 |
| 20260507134728 | 53 | 270 | 0.0 | 6.0 | 0.00 | 0.13 | 0.02 | 58 | 1012.3 |
| 20260507134213 | 53 | 283 | 0.0 | 1.0 | 0.00 | 0.13 | 0.02 | 60 | 1012.4 |
| 20260507133720 | 52 | 280 | 1.0 | 6.0 | 0.00 | 0.14 | 0.02 | 60 | 1012.5 |
| 20260507133225 | 52 | 280 | 1.0 | 6.0 | 0.00 | 0.14 | 0.02 | 59 | 1012.4 |
| 20260507132711 | 52 | 295 | 1.0 | 6.0 | 0.00 | 0.15 | 0.02 | 60 | 1012.5 |
| 20260507131704 | 52 | 290 | 1.0 | 6.0 | 0.00 | 0.15 | 0.02 | 60 | 1012.4 |
| 20260507131158 | 52 | 277 | 0.0 | 6.0 | 0.00 | 0.15 | 0.02 | 59 | 1012.4 |
| 20260507130641 | 52 | 277 | 0.0 | 2.0 | 0.00 | 0.16 | 0.02 | 58 | 1012.3 |
| 20260507130140 | 52 | 279 | 0.0 | 3.0 | 0.00 | 0.16 | 0.02 | 58 | 1012.4 |
| 20260507125631 | 51 | 293 | 0.0 | 3.0 | 0.00 | 0.16 | 0.02 | 57 | 1012.3 |
| 20260507125126 | 51 | 257 | 0.0 | 3.0 | 0.00 | 0.17 | 0.02 | 56 | 1012.3 |
| 20260507124632 | 51 | 236 | 0.0 | 3.0 | 0.00 | 0.17 | 0.02 | 55 | 1012.2 |
| 20260507124115 | 51 | 275 | 0.0 | 2.0 | 0.00 | 0.18 | 0.02 | 52 | 1012.2 |
| 20260507123602 | 51 | 262 | 0.0 | 2.0 | 0.00 | 0.19 | 0.02 | 51 | 1012.2 |
| 20260507122550 | 51 | 245 | 0.0 | 1.0 | 0.00 | 0.20 | 0.02 | 48 | 1012.2 |
| 20260507121557 | 50 | 250 | 0.0 | 1.0 | 0.00 | 0.20 | 0.02 | 43 | 1012.2 |
| 20260507121059 | 50 | 250 | 0.0 | 3.0 | 0.00 | 0.21 | 0.02 | 43 | 1012.1 |
| 20260507120023 | 50 | 300 | 0.0 | 1.0 | 0.00 | 0.21 | 0.02 | 40 | 1012.1 |
| 20260507115508 | 50 | 310 | 0.0 | 0.0 | 0.00 | 0.21 | 0.02 | 34 | 1011.9 |
| 20260507115007 | 50 | 310 | 0.0 | 0.0 | 0.00 | 0.21 | 0.02 | 32 | 1012.1 |
| 20260507114454 | 50 | 311 | 0.0 | 1.0 | 0.00 | 0.21 | 0.02 | 28 | 1012.1 |
| 20260507113943 | 49 | 311 | 0.0 | 0.0 | 0.00 | 0.21 | 0.02 | 24 | 1012.0 |
| 20260507113449 | 49 | 311 | 0.0 | 2.0 | 0.00 | 0.21 | 0.02 | 19 | 1012.0 |
| 20260507112933 | 49 | 5 | 0.0 | 0.0 | 0.00 | 0.21 | 0.02 | 13 | 1012.0 |
| 20260507112417 | 49 | 5 | 0.0 | 2.0 | 0.00 | 0.21 | 0.02 | 6 | 1012.0 |